Regional Weather Roundup
Issued by NWS

Home | Current Version | Previous Version | Graphics & Text | Print | Product List | Glossary On
Versions: 1 2 3 4 5 6 7 8 9 10 11 12 13 14 15 16 17 18 19 20 21 22 23 24 25 26 27 28 29 30 31 32 33 34 35 36 37 38 39 40 41 42 43 44 45 46 47 48 49 50
000
ASUS43 KOAX 291010
RWRNE

WEATHER ROUNDUP FOR NEBRASKA
NATIONAL WEATHER SERVICE OMAHA NE
500 AM CDT MON MAY 29 2017

NOTES: SATELLITE DATA IS BEING USED TO AUGMENT CLOUD COVER ABOVE
       12000 FEET.
       "FAIR" INDICATES FEW OR NO CLOUDS BELOW 12,000 FEET WITH NO
       SIGNIFICANT WEATHER AND/OR OBSTRUCTIONS TO VISIBILITY.

  * THESE STATIONS DO NOT REPORT WEATHER SUCH AS RAIN...SNOW OR FOG.

NEZ001>004-019>022-054>056-291100-
NEBRASKA PANHANDLE

CITY           SKY/WX    TMP DP  RH WIND       PRES   REMARKS
SCOTTSBLUFF    CLEAR     48  42  80 NW5       30.18S
ALLIANCE       CLEAR     42  40  92 W8        30.14S
CHADRON        CLEAR     49  43  80 NW10      30.13R
GORDON         FAIR      43  40  90 NW8       30.11S
KIMBALL        CLOUDY    47  42  80 W9        30.22F
SIDNEY         CLEAR     46  42  86 W10       30.19S
$$

NEZ057>060-069>072-079>082-291100-
SOUTHWEST NEBRASKA

CITY           SKY/WX    TMP DP  RH WIND       PRES   REMARKS
NORTH PLATTE   CLEAR     47  45  93 NW8       30.08S
IMPERIAL       CLEAR     50  44  80 W10       30.13S
LEXINGTON      CLEAR     51  46  83 W10       30.06R
MCCOOK         CLEAR     51  46  83 W8        30.09S
OGALLALA       CLEAR     48  45  88 W8        30.13S
$$

NEZ005>010-023>029-035>040-094-291100-
NORTH CENTRAL NEBRASKA

CITY           SKY/WX    TMP DP  RH WIND       PRES   REMARKS
VALENTINE      CLEAR     48  42  80 NW9       30.06R
AINSWORTH      CLEAR     48  46  93 W7        30.04R
BROKEN BOW     CLEAR     52  46  80 NW9       30.03R
O`NEILL        CLEAR     51  45  78 W8        29.99R
ORD            CLEAR     52  45  77 NW8       30.00R
THEDFORD       CLEAR     49  46  87 W8        30.08R
$$

NEZ041-046>049-061>064-073>077-083>087-291100-
SOUTH CENTRAL NEBRASKA

CITY           SKY/WX    TMP DP  RH WIND       PRES   REMARKS
GRAND ISLAND   CLEAR     52  47  83 W8        30.01R
AURORA         CLEAR     53  46  77 W8        30.01R
HASTINGS       CLEAR     55  45  68 W12       30.03R
HEBRON         CLEAR     55  49  78 W3        30.01S
HOLDREGE       CLEAR     51  45  78 W9        30.06R
KEARNEY *      CLEAR     54  45  71 W8        30.04R
YORK           CLEAR     54  46  76 W9        30.00R
$$

NEZ011>018-030>034-042>045-291100-
NORTHEAST NEBRASKA

CITY           SKY/WX    TMP DP  RH WIND       PRES   REMARKS
NORFOLK        CLEAR     52  44  74 W7        29.96R
ALBION         CLEAR     51  46  84 NW7       29.99R
BLAIR          PTCLDY    57  44  62 W5        29.94R
FREMONT        CLEAR     54  45  72 W8        29.96R
TEKAMAH        CLEAR     54  43  66 W6        29.93R
WAYNE          PTCLDY    52  46  78 CALM      29.94R
$$

NEZ050>053-065>068-078-088>093-291100-
SOUTHEAST NEBRASKA

CITY           SKY/WX    TMP DP  RH WIND       PRES   REMARKS
LINCOLN        CLEAR     58  46  64 W5        29.98R
OMAHA EPPLEY   PTCLDY    58  44  60 N3        29.94R
BEATRICE       CLEAR     55  48  80 W6        29.97S
FALLS CITY     CLOUDY    55  50  83 NW8       29.94R
NEBRASKA CITY  MOCLDY    60  41  50 W8        29.94F
PLATTSMOUTH    CLOUDY    60  46  60 W6        29.94S
$$

NEZ044-045-051>053-067-291100-
OMAHA AREA

CITY           SKY/WX    TMP DP  RH WIND       PRES   REMARKS
OMAHA EPPLEY   PTCLDY    58  44  60 N3        29.94R
BLAIR          PTCLDY    57  44  62 W5        29.94R
FREMONT        CLEAR     54  45  72 W8        29.96R
MILLARD        PTCLDY    57  47  69 CALM      29.95R
OFFUTT AFB     PTCLDY    52  47  83 W7        29.93R
PLATTSMOUTH    CLOUDY    60  46  60 W6        29.94S
WAHOO          FAIR      57  44  62 W8        29.95R
$$




USA.gov is the U.S. government's official web portal to all federal, state and local government web resources and services.